Temp
-11 -11 -11 -11 -11 -11 -11 -11 -11 -12 -11 -11 -11 -11 -11 -11 -11 -11 -11 -11 -11 -12 -12 -11 -11 -11 -11 -11 -11 -12 -11 -11 -11 -12 -12 -12 -12 -12 -12 -12 -11 -11 -11
-11 -11 -11 -11 -11 -11 -11 -11 -12 -11 -11 -11 -11 -11 -10 -10 -10 -11 -12 -13 -13 -12 -11 -11 -12 -12 -12 -12 -12 -12 -11 -11 -11 -11 -12 -12 -12 -12 -12 -12 -11 -11 -11
-11 -11 -11 -11 -11 -11 -11 -11 -11 -11 -11 -11 -11 -10 -11 -11 -11 -11 -12 -14 -14 -12 -12 -12 -12 -11 -11 -11 -12 -11 -11 -12 -12 -12 -12 -12 -12 -12 -12 -11 -12 -11 -12
-12 -12 -12 -12 -12 -11 -11 -11 -11 -12 -12 -12 -12 -11 -11 -11 -11 -11 -12 -13 -13 -13 -12 -12 -12 -12 -12 -12 -12 -12 -12 -12 -12 -13 -13 -13 -12 -12 -12 -12 -12 -13 -13
-12 -12 -12 -12 -12 -12 -12 -12 -12 -12 -12 -12 -12 -11 -11 -11 -12 -12 -13 -13 -13 -12 -12 -13 -12 -13 -12 -12 -12 -12 -12 -13 -13 -13 -13 -13 -12 -12 -12 -13 -13 -14 -16
-12 -12 -12 -12 -13 -12 -12 -12 -12 -13 -13 -12 -12 -12 -12 -11 -13 -13 -13 -13 -13 -13 -13 -13 -13 -13 -12 -13 -13 -13 -13 -14 -14 -13 -13 -13 -13 -13 -14 -15 -15 -16 -17
-12 -12 -12 -12 -12 -13 -13 -12 -12 -13 -13 -14 -13 -13 -12 -12 -13 -14 -14 -14 -13 -13 -14 -14 -13 -13 -12 -13 -14 -14 -14 -14 -14 -14 -14 -14 -15 -15 -16 -17 -18 -18 -18
-13 -13 -13 -13 -13 -13 -13 -12 -12 -12 -13 -14 -14 -14 -14 -14 -14 -14 -13 -14 -13 -14 -14 -13 -13 -13 -13 -14 -15 -15 -14 -14 -14 -14 -15 -16 -16 -17 -17 -17 -17 -18 -18
-13 -13 -13 -13 -13 -13 -12 -12 -13 -12 -13 -14 -15 -14 -14 -14 -14 -13 -14 -14 -14 -13 -13 -14 -14 -14 -14 -15 -14 -14 -14 -15 -15 -15 -16 -16 -17 -17 -18 -18 -18 -19 -19
-14 -13 -14 -14 -13 -13 -13 -13 -13 -13 -14 -14 -13 -14 -14 -14 -14 -14 -14 -14 -14 -13 -14 -14 -14 -14 -15 -15 -15 -15 -15 -16 -16 -16 -17 -17 -17 -18 -18 -19 -19 -19 -20
-14 -14 -14 -14 -14 -13 -13 -13 -13 -13 -13 -14 -14 -15 -15 -14 -14 -14 -14 -14 -13 -13 -13 -14 -14 -14 -15 -16 -15 -16 -16 -17 -17 -17 -17 -17 -18 -18 -19 -19 -20 -20 -20
-15 -14 -14 -14 -14 -13 -13 -12 -13 -14 -13 -14 -14 -14 -14 -15 -14 -15 -14 -14 -13 -14 -14 -14 -15 -15 -15 -15 -15 -16 -17 -17 -17 -17 -17 -18 -18 -19 -20 -20 -21 -21 -21
-14 -13 -13 -14 -14 -15 -14 -13 -14 -13 -14 -14 -16 -15 -15 -14 -14 -15 -15 -15 -14 -15 -15 -15 -15 -15 -15 -16 -16 -17 -17 -17 -17 -18 -18 -18 -18 -19 -20 -21 -21 -21 -21
-13 -13 -14 -13 -14 -14 -13 -14 -14 -14 -14 -15 -15 -15 -16 -15 -15 -16 -16 -16 -16 -16 -16 -16 -16 -16 -16 -16 -17 -17 -17 -18 -18 -18 -18 -18 -19 -20 -21 -21 -22 -22 -21
-15 -14 -15 -15 -16 -16 -15 -15 -16 -16 -15 -16 -16 -16 -16 -16 -16 -17 -17 -16 -16 -16 -16 -16 -16 -16 -17 -17 -18 -18 -18 -18 -18 -18 -18 -19 -19 -20 -21 -22 -22 -22 -21
-16 -15 -15 -16 -16 -16 -16 -17 -16 -16 -18 -18 -18 -18 -18 -17 -17 -17 -17 -16 -16 -16 -16 -16 -17 -17 -18 -18 -18 -18 -18 -18 -18 -18 -18 -19 -19 -19 -21 -22 -22 -21 -21
-18 -17 -17 -17 -18 -18 -19 -19 -19 -19 -18 -18 -18 -18 -18 -17 -17 -17 -17 -17 -17 -17 -17 -17 -17 -18 -18 -18 -18 -19 -19 -18 -18 -18 -19 -19 -19 -19 -20 -21 -21 -21 -20
-19 -19 -18 -18 -18 -18 -18 -18 -18 -18 -18 -18 -18 -18 -18 -18 -18 -18 -18 -18 -18 -18 -18 -18 -19 -19 -19 -19 -19 -19 -19 -19 -19 -19 -19 -19 -19 -19 -19 -19 -20 -19 -19
-19 -19 -19 -19 -19 -19 -18 -18 -18 -18 -18 -18 -18 -19 -19 -19 -19 -18 -19 -19 -19 -19 -19 -19 -20 -19 -20 -20 -19 -19 -19 -19 -19 -19 -19 -19 -19 -19 -19 -19 -19 -19 -18
-19 -19 -19 -19 -19 -19 -20 -20 -20 -20 -20 -19 -19 -19 -19 -19 -19 -20 -20 -20 -20 -20 -20 -20 -20 -20 -20 -20 -19 -19 -19 -19 -19 -19 -19 -19 -19 -19 -19 -19 -19 -18 -18
-20 -20 -20 -20 -20 -20 -20 -20 -20 -20 -20 -21 -21 -21 -21 -21 -21 -21 -21 -21 -21 -21 -20 -20 -20 -20 -20 -20 -19 -19 -19 -19 -19 -19 -19 -19 -19 -19 -18 -19 -19 -18 -18
-20 -20 -20 -20 -20 -20 -20 -20 -21 -21 -21 -22 -22 -22 -22 -22 -22 -22 -22 -22 -22 -21 -21 -21 -21 -20 -20 -20 -19 -19 -19 -19 -19 -19 -19 -19 -19 -19 -19 -19 -19 -19 -19
-21 -21 -21 -21 -21 -21 -21 -21 -21 -22 -22 -22 -22 -23 -23 -23 -23 -23 -23 -22 -22 -22 -22 -21 -21 -20 -20 -20 -19 -19 -19 -19 -19 -19 -19 -19 -19 -19 -19 -19 -19 -19 -19
-22 -22 -22 -22 -22 -22 -22 -22 -23 -23 -23 -23 -24 -24 -24 -23 -23 -23 -23 -22 -22 -22 -22 -21 -21 -20 -20 -20 -19 -19 -19 -19 -19 -19 -19 -19 -19 -19 -19 -19 -19 -19 -19
-23 -22 -22 -22 -22 -22 -23 -23 -23 -24 -24 -24 -24 -24 -23 -23 -23 -23 -23 -23 -23 -22 -22 -21 -21 -20 -20 -20 -20 -19 -19 -19 -19 -19 -19 -19 -19 -19 -19 -19 -19 -19 -19
-23 -23 -22 -22 -23 -23 -23 -23 -24 -24 -24 -24 -24 -24 -23 -23 -23 -23 -23 -23 -23 -22 -22 -21 -21 -21 -21 -21 -21 -20 -20 -20 -20 -19 -19 -19 -19 -20 -20 -19 -19 -19 -19
Height
5807 5807 5808 5809 5809 5811 5809 5806 5807 5806 5806 5804 5803 5801 5799 5795 5791 5786 5784 5784 5783 5785 5786 5785 5783 5782 5780 5779 5776 5774 5770 5769 5767 5766 5761 5759 5756 5755 5753 5750 5748 5745 5742
5794 5795 5795 5796 5797 5797 5796 5796 5795 5794 5794 5793 5791 5790 5785 5780 5777 5773 5772 5773 5774 5776 5778 5778 5775 5773 5771 5769 5766 5763 5760 5758 5755 5752 5749 5746 5743 5741 5739 5738 5734 5731 5728
5780 5779 5782 5783 5783 5785 5784 5784 5784 5784 5783 5782 5780 5777 5774 5770 5768 5764 5762 5763 5766 5768 5768 5767 5764 5762 5760 5758 5754 5752 5750 5747 5743 5741 5738 5733 5731 5728 5726 5722 5717 5711 5706
5763 5764 5767 5770 5771 5771 5771 5773 5773 5773 5771 5769 5768 5765 5764 5761 5757 5755 5755 5757 5758 5760 5759 5755 5753 5751 5746 5744 5742 5740 5737 5734 5730 5727 5724 5722 5716 5711 5706 5700 5695 5689 5685
5749 5751 5755 5755 5755 5758 5759 5760 5759 5758 5757 5756 5756 5755 5753 5751 5750 5750 5749 5749 5749 5749 5746 5743 5742 5740 5736 5733 5730 5727 5724 5721 5716 5712 5711 5707 5702 5697 5692 5684 5680 5672 5667
5736 5738 5741 5741 5742 5744 5745 5745 5745 5745 5745 5746 5744 5743 5742 5742 5738 5738 5738 5738 5738 5737 5735 5732 5729 5727 5724 5720 5717 5712 5708 5706 5702 5698 5693 5686 5681 5676 5672 5666 5664 5662 5658
5722 5725 5727 5727 5730 5731 5732 5732 5732 5732 5732 5731 5733 5733 5731 5732 5730 5729 5729 5727 5726 5725 5722 5721 5717 5713 5710 5706 5702 5700 5697 5694 5689 5684 5677 5671 5665 5660 5660 5655 5651 5648 5646
5707 5709 5714 5715 5717 5718 5720 5721 5721 5719 5721 5721 5718 5719 5720 5719 5718 5717 5716 5713 5712 5712 5710 5708 5705 5700 5695 5693 5689 5685 5682 5677 5671 5669 5662 5655 5651 5648 5645 5640 5637 5633 5633
5691 5696 5701 5703 5707 5708 5709 5708 5707 5706 5706 5706 5706 5706 5706 5705 5707 5705 5702 5700 5700 5697 5695 5693 5690 5686 5682 5679 5675 5671 5665 5660 5655 5650 5646 5642 5638 5632 5629 5626 5622 5620 5620
5676 5683 5689 5691 5694 5695 5695 5696 5695 5693 5692 5693 5690 5694 5693 5693 5696 5692 5690 5687 5685 5683 5680 5677 5676 5673 5669 5665 5660 5656 5652 5647 5642 5636 5632 5628 5622 5617 5613 5610 5608 5607 5607
5663 5669 5674 5676 5679 5681 5682 5680 5679 5681 5679 5681 5679 5679 5679 5681 5680 5678 5676 5675 5672 5669 5665 5662 5659 5658 5653 5650 5646 5641 5638 5634 5630 5623 5619 5614 5608 5602 5599 5595 5593 5591 5594
5650 5656 5660 5663 5664 5666 5668 5663 5665 5666 5668 5666 5665 5666 5667 5665 5665 5664 5663 5661 5659 5654 5650 5647 5644 5642 5640 5637 5633 5629 5625 5621 5617 5610 5605 5600 5595 5590 5585 5579 5577 5579 5582
5643 5647 5648 5643 5653 5650 5651 5643 5653 5653 5653 5651 5650 5653 5652 5652 5650 5647 5645 5644 5641 5640 5638 5634 5631 5629 5625 5622 5618 5616 5613 5610 5605 5599 5593 5587 5581 5576 5569 5563 5563 5566 5571
5626 5626 5633 5634 5641 5634 5631 5639 5639 5638 5640 5638 5637 5638 5637 5635 5634 5634 5631 5630 5629 5626 5624 5620 5619 5615 5611 5609 5607 5603 5601 5597 5593 5588 5581 5574 5568 5561 5554 5550 5551 5555 5561
5614 5619 5621 5621 5621 5625 5625 5626 5626 5629 5629 5628 5625 5623 5620 5620 5620 5617 5617 5616 5616 5614 5610 5607 5604 5601 5598 5595 5594 5594 5590 5586 5582 5576 5570 5564 5557 5550 5543 5543 5546 5549 5555
5604 5610 5612 5616 5616 5615 5616 5617 5617 5616 5614 5614 5610 5610 5610 5608 5607 5605 5605 5604 5602 5600 5596 5594 5590 5588 5585 5583 5583 5581 5579 5576 5573 5566 5561 5555 5549 5542 5537 5539 5542 5546 5551
5605 5607 5607 5606 5605 5608 5608 5607 5607 5605 5606 5603 5602 5599 5596 5597 5597 5594 5591 5587 5586 5585 5581 5579 5577 5575 5572 5573 5572 5571 5569 5567 5565 5558 5553 5548 5542 5537 5535 5535 5539 5544 5549
5607 5606 5603 5601 5602 5602 5601 5602 5602 5601 5598 5597 5593 5590 5588 5584 5584 5582 5580 5576 5574 5572 5568 5566 5564 5562 5562 5561 5561 5561 5560 5560 5556 5551 5546 5541 5537 5534 5533 5534 5537 5542 5548
5603 5602 5602 5602 5601 5600 5599 5595 5593 5591 5588 5585 5583 5580 5576 5573 5571 5568 5566 5563 5560 5557 5557 5555 5552 5551 5550 5550 5551 5553 5553 5551 5548 5544 5540 5536 5533 5530 5530 5533 5536 5540 5545
5602 5601 5600 5598 5597 5594 5589 5585 5583 5579 5575 5571 5568 5565 5564 5560 5557 5554 5552 5549 5548 5546 5543 5542 5542 5541 5540 5540 5542 5544 5544 5543 5541 5537 5534 5531 5529 5526 5526 5529 5532 5535 5541
5603 5599 5594 5590 5586 5582 5579 5577 5574 5569 5565 5561 5557 5555 5551 5547 5545 5542 5541 5539 5536 5533 5533 5532 5531 5530 5530 5532 5533 5535 5535 5534 5533 5531 5529 5526 5523 5521 5521 5523 5526 5531 5536
5598 5594 5589 5583 5579 5577 5574 5569 5563 5559 5554 5549 5545 5542 5539 5536 5534 5533 5531 5529 5526 5525 5523 5522 5520 5520 5521 5523 5524 5526 5526 5526 5525 5524 5522 5520 5517 5516 5516 5518 5522 5526 5532
5596 5591 5586 5581 5577 5573 5569 5564 5558 5552 5547 5542 5537 5533 5530 5528 5526 5524 5523 5521 5519 5516 5514 5512 5512 5511 5512 5513 5514 5515 5516 5516 5516 5515 5514 5512 5511 5510 5511 5513 5517 5521 5527
5594 5589 5584 5579 5573 5567 5561 5555 5548 5543 5537 5533 5529 5526 5523 5522 5520 5518 5516 5513 5509 5507 5505 5504 5503 5503 5503 5503 5504 5505 5505 5505 5506 5505 5504 5504 5503 5504 5504 5507 5511 5516 5522
5591 5585 5579 5573 5566 5560 5553 5547 5542 5536 5532 5528 5525 5522 5519 5517 5514 5511 5507 5504 5501 5499 5497 5496 5495 5494 5494 5494 5494 5494 5494 5494 5494 5494 5494 5494 5494 5495 5497 5500 5505 5510 5517
5586 5579 5572 5565 5558 5552 5546 5541 5535 5530 5526 5522 5519 5517 5514 5510 5506 5503 5499 5496 5493 5491 5489 5488 5487 5487 5486 5486 5486 5485 5484 5484 5484 5484 5484 5484 5485 5486 5489 5492 5498 5504 5511
Wind_Speed
59 60 61 58 58 53 55 58 56 55 52 53 48 50 50 52 53 54 50 52 55 42 38 39 37 39 41 43 41 41 39 39 38 35 39 38 37 38 43 48 52 52 55
66 66 64 63 61 57 56 57 59 53 51 50 49 49 48 47 46 44 46 39 31 32 39 38 38 39 42 44 45 42 44 42 40 42 40 45 52 53 53 50 54 58 60
55 59 59 57 56 53 53 53 50 50 48 48 49 41 41 43 42 38 39 28 26 36 35 40 43 47 49 51 46 46 49 49 48 51 49 44 45 47 54 59 66 67 68
56 56 55 56 55 53 54 53 51 50 50 52 48 42 40 41 39 30 32 28 33 38 41 39 37 47 51 48 46 50 52 52 54 48 46 49 55 57 59 66 71 73 74
53 51 50 53 53 49 49 49 50 50 51 48 39 42 44 42 23 26 29 35 40 42 40 43 49 44 46 49 54 54 56 60 60 55 59 58 60 67 72 76 75 74 61
51 51 50 51 48 48 47 49 50 49 46 42 44 41 37 33 34 33 38 42 35 36 39 36 35 45 44 47 48 58 56 41 42 48 55 61 70 77 75 63 58 53 51
53 50 51 54 51 50 49 52 54 51 48 41 42 42 43 37 36 37 39 48 51 45 36 40 44 46 45 47 51 48 41 42 49 56 66 71 71 65 61 56 56 55 53
57 54 52 52 49 49 52 56 62 54 44 44 51 47 42 39 37 38 43 38 44 55 50 47 51 51 54 51 50 53 58 55 55 59 60 58 58 58 59 55 55 51 52
62 57 52 51 50 48 49 53 54 57 49 48 50 49 45 35 32 39 36 39 41 42 43 50 53 55 57 52 58 56 56 58 58 58 58 59 60 59 58 54 51 48 46
63 58 53 51 49 49 51 55 57 55 47 48 43 46 42 46 41 42 43 45 51 52 49 50 50 48 53 55 54 55 56 56 56 57 59 57 58 56 55 51 50 50 45
64 57 52 51 51 54 56 60 56 54 47 36 41 41 34 39 44 46 47 50 52 49 51 53 55 54 55 58 55 55 55 53 55 55 55 57 55 54 50 48 46 45 40
66 59 55 56 54 54 56 55 49 46 54 47 47 42 51 43 52 54 53 51 53 54 51 46 48 51 49 52 54 55 52 53 54 50 51 53 53 51 48 44 42 40 36
55 59 61 63 59 63 67 46 50 46 56 60 37 40 42 52 54 50 51 53 50 48 47 47 47 49 51 53 55 54 49 51 49 47 49 51 51 50 47 40 35 37 37
52 51 45 47 53 50 50 50 47 46 52 54 51 56 53 58 52 58 52 49 51 44 44 46 49 51 52 54 54 46 46 46 45 47 48 47 47 47 39 31 26 25 26
27 52 37 29 32 30 31 33 34 42 45 43 46 50 50 46 44 39 40 44 45 45 45 47 51 53 54 52 46 43 42 39 41 45 43 41 43 39 28 20 17 17 23
12 21 32 40 30 31 27 28 40 35 29 31 31 33 34 36 38 40 42 42 44 47 51 53 55 56 52 46 42 38 35 34 38 38 36 36 37 30 20 18 16 18 23
10 16 13 15 12 15 18 21 25 28 31 30 33 35 34 37 40 42 44 45 47 50 52 54 54 50 42 40 36 33 30 32 34 32 31 32 31 21 16 18 18 20 24
10 11 13 15 18 20 22 25 28 31 32 35 37 38 40 40 42 45 47 48 48 48 49 49 44 39 36 33 31 30 29 30 29 28 27 28 27 18 14 17 21 24 27
14 14 15 16 19 21 24 27 30 33 35 37 40 41 42 44 45 46 45 46 45 45 45 43 38 35 32 29 28 28 28 28 26 26 26 25 24 17 16 20 23 26 28
18 18 19 21 23 25 28 31 34 37 39 40 41 42 43 45 44 44 43 41 41 39 37 37 36 32 30 28 28 28 25 24 24 24 24 24 22 17 18 21 23 25 27
19 21 24 26 27 28 31 35 37 39 40 39 38 37 37 38 39 38 37 37 36 37 37 36 33 31 29 29 29 29 28 27 27 26 24 23 20 17 18 22 24 26 28
27 28 29 31 32 32 34 37 39 38 36 36 35 35 36 35 32 30 30 31 33 36 36 31 29 29 30 30 30 30 30 31 27 25 23 21 19 17 18 22 26 27 28
29 30 31 32 32 32 32 34 34 33 32 30 31 29 27 25 24 25 27 28 30 31 29 26 26 27 29 30 31 31 31 31 27 26 25 22 19 18 20 23 26 29 29
31 30 29 29 31 30 31 32 31 29 27 25 23 22 21 22 23 25 26 27 26 24 23 22 23 23 25 28 31 32 33 31 29 27 26 23 20 19 20 27 29 30 29
32 30 30 31 31 30 28 28 26 25 21 19 18 18 18 20 21 23 24 22 20 20 20 20 20 21 23 25 26 28 29 29 27 26 26 24 22 21 22 28 32 31 29
34 32 34 35 31 27 25 25 25 23 20 17 17 17 19 20 22 21 19 19 20 19 19 19 19 19 19 20 22 23 24 25 26 26 25 24 23 22 23 27 33 34 32
Wind_Direction
251 254 259 260 261 264 266 266 268 269 274 276 278 283 286 290 288 285 280 280 284 265 268 267 272 284 289 293 291 285 282 279 284 282 273 265 266 271 275 286 294 295 295
253 255 258 262 263 261 263 265 265 271 272 275 278 284 289 284 285 287 278 268 264 263 266 276 283 286 293 292 287 282 279 282 281 281 282 272 269 275 285 291 289 290 290
251 253 254 258 259 262 259 260 265 271 274 276 279 283 284 284 287 282 266 251 260 271 273 284 290 288 287 288 285 284 279 281 280 282 282 277 278 281 288 287 282 277 276
252 253 255 257 257 257 261 261 263 267 269 274 279 275 276 279 283 285 271 263 262 269 280 285 289 298 293 283 286 284 281 282 280 274 276 280 280 280 276 277 280 280 280
252 252 252 255 256 258 259 259 263 264 268 274 271 271 270 276 278 277 265 266 268 276 284 288 276 298 299 291 287 286 288 287 278 270 278 282 281 278 280 285 285 290 293
248 250 251 252 253 259 264 262 262 261 262 261 266 267 266 261 260 263 263 265 268 275 284 287 287 294 303 302 297 288 288 282 281 279 276 276 276 280 286 291 289 288 288
247 251 251 252 256 251 257 256 255 256 252 256 260 260 268 262 270 275 281 273 264 271 279 285 293 299 304 307 300 282 283 286 283 283 279 280 284 289 287 288 285 284 283
247 250 251 254 258 256 255 260 265 262 262 257 251 256 261 261 268 284 277 288 276 267 268 291 291 298 300 299 287 288 286 286 283 281 286 287 286 287 288 288 286 280 277
245 248 251 256 261 263 265 265 276 277 276 257 250 257 263 260 278 287 278 277 283 278 275 288 294 298 295 291 296 289 284 288 291 288 289 285 286 289 289 287 282 283 279
244 247 251 254 256 259 260 266 271 273 253 247 254 262 265 271 279 283 278 278 283 280 279 283 292 287 285 283 285 284 288 293 293 292 290 288 288 288 287 285 280 279 278
241 244 248 251 255 260 263 266 262 268 252 261 258 277 279 284 281 281 278 279 286 283 285 286 284 288 280 281 282 289 291 289 292 293 291 293 291 289 289 286 280 274 268
240 242 247 250 256 256 262 258 257 279 271 259 267 289 278 270 285 278 276 280 284 288 290 281 279 278 276 279 285 288 287 289 294 296 296 295 292 289 290 285 276 265 259
244 247 250 244 243 250 250 254 265 265 276 271 259 268 279 284 277 285 278 283 281 280 274 272 274 274 281 285 287 288 285 290 293 296 298 295 293 292 295 284 266 258 255
233 239 245 235 242 250 243 249 254 266 262 268 262 274 286 284 279 274 277 272 272 268 272 272 275 280 282 286 288 284 286 291 294 298 298 297 296 301 294 277 262 247 232
235 228 236 268 292 277 256 268 269 282 277 276 268 271 272 271 270 270 267 267 269 272 274 276 278 281 284 286 287 284 288 290 297 299 298 297 303 304 288 261 242 234 227
253 260 254 256 273 267 270 273 275 261 266 270 269 272 273 274 276 275 274 273 275 276 278 279 282 282 285 286 283 283 284 294 299 301 298 302 308 304 280 233 236 226 215
297 276 288 288 300 308 306 300 298 294 289 285 284 284 282 280 279 279 280 280 281 281 281 283 283 284 282 278 276 278 284 291 299 304 300 306 309 299 267 222 218 207 204
340 324 321 319 308 302 297 291 287 286 285 284 283 282 280 279 278 277 278 279 279 280 283 282 283 281 275 273 273 275 280 288 298 305 307 307 308 286 247 210 198 201 204
340 333 322 312 305 300 295 293 292 289 287 285 283 282 281 279 277 277 278 279 282 283 284 287 284 276 270 266 267 269 276 281 299 304 309 304 303 276 234 217 208 206 206
340 330 323 317 310 308 308 307 304 301 299 295 291 287 283 282 281 279 279 280 280 285 288 284 279 272 265 263 262 263 266 285 292 305 305 301 296 270 235 220 215 211 210
340 331 325 320 315 313 312 310 307 303 298 293 289 286 284 283 282 281 281 282 286 288 286 282 273 267 262 260 258 260 266 277 287 296 296 299 290 269 240 226 218 214 208
341 336 334 330 322 315 311 314 313 306 300 296 293 292 288 284 280 280 283 285 286 286 284 275 269 264 259 258 258 259 266 274 280 284 289 290 289 272 237 226 217 212 207
340 335 330 327 322 313 310 312 309 303 300 296 294 291 287 283 283 286 286 286 287 283 277 270 267 263 260 258 260 263 266 271 276 278 284 284 283 267 237 219 214 209 207
337 331 327 324 323 317 316 317 314 310 306 303 300 297 292 290 287 287 289 291 288 281 274 271 269 267 266 264 265 267 267 270 271 274 277 277 275 262 239 217 212 212 209
337 333 331 329 325 320 319 321 318 315 309 304 299 295 296 297 296 297 297 294 289 284 279 275 275 275 273 271 271 271 270 269 269 269 271 273 269 257 237 218 211 211 207
341 339 338 336 330 323 323 324 323 322 317 312 308 306 308 306 307 305 304 304 303 297 289 285 283 281 281 283 281 277 274 271 269 268 271 271 264 247 228 217 208 206 202